Weather History for Covington, KY

Change the Weather History Date:

Monday, February 17, 2014

  Actual Average Record
Temperature  
Mean Temperature 27 °F 35 °F  
Max Temperature 38 °F 43 °F 70 °F (1911)
Min Temperature 15 °F 26 °F -4 °F (1958)
Degree Days  
Heating Degree Days 38 30  
Month to date heating degree days 686 542  
Since 1 July heating degree days 3909 3514  
Cooling Degree Days 0 0  
Month to date cooling degree days 0 0  
Year to date cooling degree days 0 0  
Moisture  
Dew Point 25 °F    
Average Humidity 83    
Maximum Humidity 100    
Minimum Humidity 66    
Precipitation  
Precipitation 0.45 in 0.09 in 1.02 in (1976)
Month to date precipitation 2.16 1.73  
Year to date precipitation 4.96 4.73  
Snow  
Snow T in 0.30 in 10.80 in (1910)
Month to date snowfall 10.8 4.4  
Since 1 July snowfall 44.0 16.5  
Snow Depth 4.00 in    
Sea Level Pressure  
Sea Level Pressure 29.98 in    
Wind  
Wind Speed 12 mph (SSE)    
Max Wind Speed 29 mph    
Max Gust Speed 37 mph    
Visibility 6 miles    
Events Rain , Snow , Thunderstorm    
T = Trace of Precipitation, MM = Missing Value Source: NWS Daily Summary

Daily Weather History Graph

Daily Weather History Graph

Search for Another Location

Airport:

Trip Planner

Search our weather history database for the weather conditions in past years. The results will help you decide how hot, cold, wet, or windy it might be!

Date:

Astronomy

Feb. 17, 2014 Rise Set
Actual Time 7:27 AM EST 6:18 PM EST
Civil Twilight 7:00 AM EST 6:45 PM EST
Nautical Twilight 6:29 AM EST 7:16 PM EST
Astronomical Twilight 5:58 AM EST 7:47 PM EST
Moon 9:10 PM EST (2/17) 8:29 AM EST (2/17)
Length of Visible Light 11h 45m
Length of Day
10h 50m
Waning Gibbous, 93% of the Moon is Illuminated
Feb 17
Waning Gibbous
Feb 22
Last Quarter
Mar 1
New
Mar 8
First Quarter
Mar 16
Full

Hourly Weather History & Observations

Time (EST) Temp. Windchill Dew Point Humidity Pressure Visibility Wind Dir Wind Speed Gust Speed Precip Events Conditions
12:52 AM 19.0 °F - 12.0 °F 74% 30.32 in 7.0 mi Calm Calm - N/A   Partly Cloudy
1:52 AM 17.1 °F 8.7 °F 10.9 °F 77% 30.31 in 7.0 mi East 5.8 mph - N/A   Clear
2:52 AM 18.0 °F 8.7 °F 12.0 °F 78% 30.31 in 7.0 mi East 6.9 mph - N/A   Scattered Clouds
3:52 AM 15.1 °F 4.2 °F 10.0 °F 80% 30.30 in 6.0 mi East 8.1 mph - N/A   Haze
4:52 AM 19.0 °F 9.0 °F 12.9 °F 77% 30.28 in 7.0 mi ESE 8.1 mph - N/A   Overcast
5:52 AM 19.0 °F 7.5 °F 12.9 °F 77% 30.29 in 6.0 mi East 10.4 mph - N/A   Haze
7:52 AM 19.9 °F 8.6 °F 14.0 °F 78% 30.27 in 7.0 mi ESE 10.4 mph - N/A   Overcast
8:52 AM 21.0 °F 9.3 °F 15.1 °F 78% 30.27 in 6.0 mi ESE 11.5 mph - N/A   Haze
9:52 AM 21.9 °F 9.8 °F 16.0 °F 78% 30.21 in 6.0 mi ESE 12.7 mph - 0.00 in Snow Light Snow
10:52 AM 25.0 °F 12.2 °F 17.1 °F 72% 30.17 in 7.0 mi SE 16.1 mph - 0.00 in   Overcast
11:52 AM 27.0 °F 15.2 °F 19.0 °F 72% 30.12 in 8.0 mi ESE 15.0 mph - N/A   Overcast
12:52 PM 30.0 °F 19.5 °F 21.0 °F 69% 30.06 in 8.0 mi ESE 13.8 mph - N/A   Overcast
1:52 PM 32.0 °F 22.1 °F 23.0 °F 69% 29.98 in 8.0 mi ESE 13.8 mph - N/A   Overcast
2:52 PM 34.0 °F 25.0 °F 24.1 °F 67% 29.88 in 7.0 mi ESE 12.7 mph - N/A   Overcast
3:25 PM 33.8 °F 24.3 °F 26.6 °F 75% 29.81 in 3.0 mi SE 13.8 mph - 0.01 in Rain Light Rain
3:52 PM 33.1 °F 21.9 °F 27.0 °F 78% 29.78 in 3.0 mi ESE 18.4 mph 25.3 mph 0.05 in Rain Light Rain
4:09 PM 33.8 °F 24.8 °F 28.4 °F 81% 29.75 in 2.0 mi ESE 12.7 mph 21.9 mph 0.02 in Rain Rain
4:19 PM 33.8 °F 25.3 °F 30.2 °F 87% 29.76 in 2.0 mi SE 11.5 mph 23.0 mph 0.07 in Rain , Thunderstorm Thunderstorms and Rain
4:48 PM 33.8 °F 24.3 °F 33.8 °F 100% 29.76 in 2.0 mi SE 13.8 mph - 0.24 in Rain Light Rain
4:52 PM 33.1 °F 23.4 °F 33.1 °F 100% 29.78 in 3.0 mi SE 13.8 mph - 0.24 in Rain Light Rain
5:25 PM 33.8 °F 25.8 °F 33.8 °F 100% 29.75 in 2.5 mi SSE 10.4 mph - 0.03 in Rain Light Rain
5:52 PM 34.0 °F 27.2 °F 34.0 °F 100% 29.77 in 2.5 mi South 8.1 mph - 0.08 in Rain Rain
6:01 PM 33.8 °F 27.0 °F 33.8 °F 100% 29.77 in 1.5 mi SSW 8.1 mph - 0.01 in Rain Rain
6:52 PM 36.0 °F 27.1 °F 35.1 °F 97% 29.79 in 3.0 mi SSW 13.8 mph 20.7 mph 0.08 in   Overcast
7:04 PM 35.6 °F 28.6 °F 35.6 °F 100% 29.75 in 3.0 mi SSW 9.2 mph 19.6 mph N/A   Overcast
7:17 PM 37.4 °F 29.8 °F 37.4 °F 100% 29.76 in 3.0 mi SW 11.5 mph 23.0 mph N/A   Overcast
7:52 PM 37.9 °F 29.2 °F 37.0 °F 97% 29.80 in 7.0 mi WSW 15.0 mph 24.2 mph N/A   Overcast
8:33 PM 37.4 °F 26.4 °F 35.6 °F 93% 29.82 in 8.0 mi West 23.0 mph 33.4 mph N/A   Overcast
8:52 PM 37.0 °F 26.2 °F 33.1 °F 86% 29.86 in 8.0 mi WSW 21.9 mph 35.7 mph N/A   Overcast
9:14 PM 37.4 °F 26.1 °F 32.0 °F 81% 29.87 in 8.0 mi West 24.2 mph 35.7 mph N/A   Overcast
9:52 PM 37.0 °F 26.4 °F 30.9 °F 79% 29.92 in 8.0 mi West 20.7 mph 29.9 mph N/A   Overcast
10:52 PM 36.0 °F 26.3 °F 30.0 °F 79% 29.95 in 9.0 mi WSW 16.1 mph 35.7 mph N/A   Overcast
11:52 PM 36.0 °F 27.1 °F 30.0 °F 79% 29.95 in 8.0 mi WSW 13.8 mph 26.5 mph N/A   Mostly Cloudy